Terminal Aerodrome Forecast
Issued by NWS

Home | Current Version | Previous Version | Text Only | Print | Product List | Glossary On
Versions: 1 2 3 4 5 6 7 8 9 10 11 12
000
FTUS46 KSTO 230500
TAFRBL
TAF
KRBL 230535Z 2306/2406 33005KT P6SM SCT250
     FM231800 15012G20KT P6SM BKN250
     FM240200 17008KT P6SM BKN250=

USA.gov is the U.S. government's official web portal to all federal, state and local government web resources and services.